Weather History for KMHT - March, 2013

Change the Weather History Date:

Thursday, March 21, 2013

  Actual Average Record
Temperature  
Mean Temperature 30 °F -  
Max Temperature 39 °F 46 °F - ()
Min Temperature 21 °F 29 °F - ()
Degree Days  
Heating Degree Days 35    
Cooling Degree Days 0    
Moisture  
Dew Point 15 °F    
Average Humidity 57    
Maximum Humidity 81    
Minimum Humidity 29    
Precipitation  
Precipitation 0.00 in 0.17 in - ()
Month to date precipitation 2.58  
Year to date precipitation 8.38  
Snow  
Snow 0.00 in - - ()
Month to date snowfall  
Since 1 July snowfall  
Snow Depth 7.00 in    
Sea Level Pressure  
Sea Level Pressure 29.74 in    
Wind  
Wind Speed 2 mph (South)    
Max Wind Speed 6 mph    
Max Gust Speed -    
Visibility 10 miles    
Events      
T = Trace of Precipitation, MM = Missing Value Source: NWS Daily Summary

Daily Weather History Graph

Daily Weather History Graph

Search for Another Location

Airport or City:

Trip Planner

Search our weather history database for the weather conditions in past years. The results will help you decide how hot, cold, wet, or windy it might be!

Date:

Astronomy

Mar. 21, 2013 Rise Set
Actual Time 6:46 AM EDT 6:59 PM EDT
Civil Twilight 6:18 AM EDT 7:27 PM EDT
Nautical Twilight 5:45 AM EDT 8:01 PM EDT
Astronomical Twilight 5:11 AM EDT 8:35 PM EDT
Moon 1:19 PM EDT (3/21) 3:13 AM EDT (3/21)
Length of Visible Light 13h 09m
Length of Day
12h 12m
Waxing Gibbous, 68% of the Moon is Illuminated
Mar 21
Waxing Gibbous
Mar 27
Full
Apr 3
Last Quarter
Apr 10
New
Apr 18
First Quarter

Hourly Weather History & Observations

Time (EDT) Temp. Windchill Dew Point Humidity Pressure Visibility Wind Dir Wind Speed Gust Speed Precip Events Conditions
12:53 AM 28.0 °F - 17.1 °F 63% 29.83 in 10.0 mi Calm Calm - N/A   Clear
1:53 AM 26.1 °F 20.5 °F 16.0 °F 66% 29.83 in 10.0 mi South 4.6 mph - N/A   Clear
2:53 AM 25.0 °F 20.7 °F 17.1 °F 72% 29.83 in 10.0 mi SSW 3.5 mph - N/A   Clear
3:53 AM 24.1 °F 19.7 °F 17.1 °F 75% 29.82 in 10.0 mi South 3.5 mph - N/A   Clear
4:53 AM 21.0 °F - 14.0 °F 74% 29.81 in 10.0 mi Calm Calm - N/A   Clear
5:53 AM 21.0 °F - 15.1 °F 78% 29.81 in 10.0 mi Calm Calm - N/A   Scattered Clouds
6:53 AM 21.0 °F - 15.1 °F 78% 29.82 in 10.0 mi Calm Calm - N/A   Mostly Cloudy
7:53 AM 21.0 °F 14.6 °F 16.0 °F 81% 29.83 in 10.0 mi South 4.6 mph - N/A   Mostly Cloudy
8:53 AM 23.0 °F - 17.1 °F 78% 29.82 in 10.0 mi Calm Calm - N/A   Mostly Cloudy
9:53 AM 30.9 °F 26.2 °F 17.1 °F 57% 29.80 in 10.0 mi Variable 4.6 mph - N/A   Partly Cloudy
10:53 AM 34.0 °F 28.8 °F 12.9 °F 42% 29.78 in 10.0 mi NNW 5.8 mph - N/A   Partly Cloudy
11:53 AM 34.0 °F - 10.9 °F 38% 29.76 in 10.0 mi Calm Calm - N/A   Mostly Cloudy
12:53 PM 34.0 °F - 10.9 °F 38% 29.74 in 10.0 mi Calm Calm - N/A   Mostly Cloudy
1:53 PM 36.0 °F - 10.0 °F 34% 29.71 in 10.0 mi Calm Calm - N/A   Mostly Cloudy
2:53 PM 37.0 °F 34.5 °F 10.0 °F 33% 29.68 in 10.0 mi ENE 3.5 mph - N/A   Scattered Clouds
3:53 PM 39.0 °F - 9.0 °F 29% 29.65 in 10.0 mi Calm Calm - N/A   Partly Cloudy
4:53 PM 37.9 °F 35.5 °F 10.0 °F 32% 29.63 in 10.0 mi SSE 3.5 mph - N/A   Partly Cloudy
5:53 PM 39.0 °F - 9.0 °F 29% 29.64 in 10.0 mi Calm Calm - N/A   Scattered Clouds
6:53 PM 39.0 °F - 12.0 °F 33% 29.64 in 10.0 mi Calm Calm - N/A   Mostly Cloudy
7:53 PM 36.0 °F 33.3 °F 15.1 °F 43% 29.64 in 10.0 mi South 3.5 mph - N/A   Mostly Cloudy
8:53 PM 32.0 °F 26.4 °F 23.0 °F 69% 29.66 in 10.0 mi SSE 5.8 mph - N/A   Partly Cloudy
9:53 PM 30.9 °F 27.5 °F 24.1 °F 76% 29.66 in 10.0 mi South 3.5 mph - N/A   Mostly Cloudy
10:53 PM 30.0 °F - 24.1 °F 79% 29.65 in 10.0 mi Calm Calm - N/A   Partly Cloudy
11:53 PM 28.9 °F - 23.0 °F 78% 29.66 in 10.0 mi Calm Calm - N/A   Mostly Cloudy